Home   Weather   Hamar   Past weeks

Flag for Norway Past Weather in Hamar, Norway — Yesterday and Last 2 Weeks

Now
45 °F

Cool.


Feels Like: 45 °F
Forecast: 47 / 78 °F
Wind: 1 mph from North

Location: Haugedalshogda

Current Time: May 26, 2017 at 3:47:00 am

Latest Report: May 26, 2017 at 3:00 am


Visibility: N/A

Pressure: 30.12 "Hg

Humidity: 90%

Dew Point: 42 °F

Location of HamarLocation

Past Weather in Hamar — Graph

°F

Hamar Temperature Yesterday

Maximum temperature yesterday: 63 °F (at 7:00 pm)
Minimum temperature yesterday: 32 °F (at 4:00 am)
Average temperature yesterday: 50 °F

High & Low Weather Summary for the Past Weeks

 TemperatureHumidityPressure
High71 °F (May 24, 1:00 pm)95% (May 25, 5:00 am)30.46 "Hg (May 25, 5:00 am)
Low20 °F (May 13, 3:00 am)25% (May 24, 6:00 pm)29.76 "Hg (May 18, 7:00 pm)
Average47 °F74%30.04 "Hg
* Reported May 11 2:00 am — May 26 2:00 am, Hamar. Weather by CustomWeather, © 2017

Note: Actual official high and low records may vary slightly from our data, if they occured in-between our weather recording intervals... More about our weather records

Advertising

Hamar Weather History for the Previous 24 Hours

Scroll right to see more
 ConditionsComfort  
Time TempWeatherWind HumidityBarometerVisibility
2:00 am
Fri, May 26
45 °FCool.1 mph89%30.11 "HgN/A
1:00 am43 °FQuite cool.1 mph91%30.09 "HgN/A
12:00 am47 °FCool.1 mph82%30.07 "HgN/A
11:00 pm
Thu, May 25
53 °FCool.1 mph70%30.04 "HgN/A
10:00 pm57 °FCool.5 mph61%30.01 "HgN/A
9:00 pm59 °FRefreshingly cool.2 mph56%29.98 "HgN/A
8:00 pm60 °FRefreshingly cool.1 mph56%29.96 "HgN/A
7:00 pm63 °FMild.2 mph46%29.93 "HgN/A
6:00 pm59 °FRefreshingly cool.2 mph54%29.96 "HgN/A
5:00 pm58 °FRefreshingly cool.2 mph53%29.97 "HgN/A
4:00 pm58 °FRefreshingly cool.1 mph53%29.97 "HgN/A
3:00 pm57 °FRefreshingly cool.2 mph54%29.98 "HgN/A
2:00 pm57 °FRefreshingly cool.3 mph50%30.00 "HgN/A
1:00 pm57 °FRefreshingly cool.3 mph51%30.00 "HgN/A
12:00 pm56 °FRefreshingly cool.5 mph54%30.02 "HgN/A
11:00 am53 °FCool.5 mph61%30.03 "HgN/A
10:00 am53 °FCool.1 mph64%30.03 "HgN/A
9:00 am50 °FCool.1 mph67%30.03 "HgN/A
8:00 am48 °FCool.1 mph66%30.04 "HgN/A
7:00 am44 °FQuite cool.No wind74%30.05 "HgN/A
6:00 am39 °FChilly.No wind91%30.07 "HgN/A
5:00 am32 °FChilly.1 mph95%30.07 "HgN/A
4:00 am32 °FChilly.No wind93%30.09 "HgN/A
3:00 am33 °FChilly.1 mph93%30.09 "HgN/A
Weather by CustomWeather, © 2017

See weather overviewHow to use our weather pages